Date,TemperatureHighF,TemperatureAvgF,TemperatureLowF,DewpointHighF,DewpointAvgF,DewpointLowF,HumidityHigh,HumidityAvg,HumidityLow,PressureMaxIn,PressureMinIn,WindSpeedMaxMPH,WindSpeedAvgMPH,GustSpeedMaxMPH,PrecipitationSumIn
2012-1-1,42.5,37.1,33.3,39.2,30.8,23.9,91,78,63,30.09,29.66,16,11,32,0.04
2012-1-2,25.5,23.3,22.0,17.6,13.7,8.7,81,67,54,30.37,30.17,17,8,21,0.00
2012-1-3,29.4,22.2,11.7,16.4,11.5,7.8,84,64,50,30.49,30.25,6,4,12,0.00
2012-1-4,44.9,37.6,27.9,29.6,25.6,20.9,75,62,51,30.05,29.94,9,5,10,0.00
2012-1-5,52.8,42.6,29.1,35.6,31.8,24.9,85,67,51,30.02,29.84,8,6,12,0.00
2012-1-6,56.5,49.2,38.2,38.7,35.9,31.5,77,61,49,29.77,29.67,8,5,14,0.00
2012-1-7,44.5,38.5,28.2,32.7,30.3,25.4,89,73,61,30.14,29.98,6,4,10,0.00
2012-1-8,43.9,36.6,23.0,32.3,29.2,21.0,94,76,58,30.39,30.32,6,3,9,0.00
2012-1-9,47.4,39.1,24.5,31.6,28.3,22.1,92,67,48,30.22,30.02,9,5,16,0.00
2012-1-10,54.7,43.5,25.9,35.9,31.9,22.8,90,66,46,30.11,29.90,7,3,11,0.00
2012-1-11,53.4,42.5,28.7,38.6,33.4,25.5,89,72,52,29.70,29.51,7,4,8,0.00
2012-1-12,29.6,21.6,17.6,27.6,19.1,15.0,92,90,89,29.60,29.47,12,7,18,0.00
2012-1-13,21.9,19.5,15.5,17.5,15.6,12.4,88,84,80,30.05,29.84,7,5,14,0.00
2012-1-14,21.5,16.8,8.9,13.8,10.8,5.5,86,77,69,30.20,30.14,4,2,6,0.00
2012-1-15,31.2,26.9,17.3,26.0,22.3,14.1,87,83,80,30.42,30.20,18,12,21,0.00
2012-1-16,48.5,41.2,34.5,45.4,36.9,29.6,90,85,80,29.92,29.72,9,6,15,0.00
2012-1-17,40.7,33.3,27.7,39.4,30.8,24.6,95,90,84,30.05,29.58,11,8,15,0.26
2012-1-18,28.8,21.7,12.1,21.5,15.3,8.5,85,76,70,30.35,30.08,10,5,15,0.00
2012-1-19,26.7,16.0,10.1,24.7,9.2,-2.7,92,75,54,30.16,29.93,9,6,13,0.00
2012-1-20,16.6,14.6,9.1,13.2,10.0,1.6,89,82,71,30.24,30.07,17,11,23,0.00
2012-1-21,24.1,21.6,17.0,18.6,15.7,10.2,88,78,70,30.29,30.21,10,5,11,0.00
2012-1-22,35.6,31.1,25.4,34.5,29.7,23.7,96,95,93,30.02,29.73,23,17,31,0.00
2012-1-23,45.1,35.9,32.5,43.5,32.7,26.8,94,88,80,29.82,29.42,13,10,24,0.08
2012-1-24,37.2,33.9,30.0,29.8,27.8,25.1,84,78,72,30.30,30.17,6,4,11,0.00
2012-1-25,33.6,31.2,25.9,30.7,28.8,24.4,94,91,88,30.36,30.17,7,4,8,0.00
2012-1-26,34.8,34.1,32.7,33.8,32.8,31.3,96,95,94,29.90,29.68,6,2,7,0.10
2012-1-27,42.7,38.5,32.9,31.7,29.8,27.4,89,71,58,29.98,29.89,6,4,8,0.00
2012-1-28,33.2,29.7,24.7,25.6,23.4,20.6,85,77,68,30.18,30.01,9,6,20,0.02
2012-1-29,33.2,31.4,28.7,27.3,24.9,21.8,83,77,71,30.24,30.04,10,7,17,0.01
2012-1-30,52.7,41.5,30.8,44.3,35.0,25.4,83,78,69,30.08,29.86,18,10,20,0.01
2012-1-31,58.2,52.5,42.4,49.9,44.8,36.8,81,75,70,29.91,29.81,14,11,22,0.00
2012-2-1,43.8,38.4,33.6,39.0,35.9,32.3,96,91,82,30.12,30.08,5,2,8,0.00
2012-2-2,43.6,36.0,31.1,40.9,34.8,30.1,97,95,90,30.34,30.27,4,2,6,0.01
2012-2-3,42.7,39.4,36.1,41.2,38.2,35.3,97,96,91,30.47,30.35,12,8,15,0.00
2012-2-4,39.9,37.7,35.6,37.8,35.8,34.1,95,93,90,30.26,30.15,14,10,17,0.14
2012-2-5,46.7,40.8,30.9,38.5,35.5,28.9,94,82,69,30.30,30.26,8,4,11,0.00
2012-2-6,32.0,31.4,30.5,30.5,29.9,29.0,96,94,90,30.25,30.17,7,4,10,0.00
2012-2-7,34.8,32.7,30.8,32.2,29.8,28.2,94,89,82,30.36,30.27,14,6,17,0.00
2012-2-8,35.1,31.5,28.7,27.1,25.1,23.6,83,77,65,30.42,30.34,6,4,11,0.00
2012-2-9,35.5,29.8,20.5,25.4,22.4,17.5,88,75,61,30.35,30.19,7,5,12,0.00
2012-2-10,36.2,33.5,28.6,32.7,30.8,26.0,94,90,86,30.01,29.91,12,6,17,0.02
2012-2-11,24.5,19.4,11.9,12.2,8.1,3.6,70,61,49,30.45,30.39,9,8,17,0.00
2012-2-13,36.9,32.8,24.3,21.0,18.7,16.8,76,57,44,30.22,29.98,10,6,17,0.00
2012-2-14,37.1,34.3,30.6,33.2,31.2,28.8,94,88,82,29.94,29.88,5,3,9,0.01
2012-2-15,41.6,38.0,31.7,38.3,35.4,29.9,93,90,87,30.11,29.99,12,8,16,0.01
2012-2-16,47.2,41.6,35.9,40.6,36.6,31.1,97,83,59,30.12,30.03,8,5,12,0.03
2012-2-17,50.5,42.3,26.8,37.9,32.4,24.3,90,69,54,30.20,30.03,13,7,18,0.00
2012-2-18,39.7,36.4,30.7,30.4,26.9,20.2,89,69,52,30.21,30.15,11,8,16,0.00
2012-2-19,38.9,34.2,23.6,25.1,23.2,20.6,88,65,50,30.23,30.14,10,7,14,0.00
2012-2-20,42.7,37.2,25.2,30.7,27.6,22.1,88,69,57,30.33,30.11,16,12,20,0.00
2012-2-21,44.5,42.2,35.2,40.4,38.3,33.6,95,86,75,29.73,29.66,11,8,19,0.07
2012-2-22,48.4,41.5,34.2,38.2,34.7,30.9,90,77,61,29.61,29.41,8,4,10,0.00
2012-2-23,41.6,38.2,32.2,39.4,36.3,30.9,95,93,91,29.56,29.43,12,8,16,0.10
2012-2-24,38.0,34.6,31.6,33.7,30.9,27.4,93,86,76,29.89,29.52,11,9,21,0.05
2012-2-25,30.7,26.9,21.2,20.2,18.1,15.8,81,69,58,30.29,30.17,9,6,13,0.00
2012-2-26,52.9,41.6,27.1,33.3,28.4,21.5,80,61,43,30.26,30.01,21,16,30,0.00
2012-2-27,39.2,35.9,30.8,28.1,25.7,23.1,77,66,60,30.45,30.28,10,7,18,0.00
2012-2-28,51.7,42.2,28.6,33.6,29.9,25.5,88,63,44,30.45,30.09,15,12,18,0.00
2012-2-29,61.7,57.7,47.7,52.8,41.7,33.8,89,57,38,29.55,29.42,18,12,29,0.16
2012-3-1,41.5,38.8,35.9,34.5,32.7,31.9,87,79,73,29.88,29.79,6,4,11,0.00
2012-3-2,46.8,40.0,35.9,43.4,37.3,33.0,93,90,87,29.55,29.24,21,8,26,0.27
2012-3-3,35.9,33.3,31.6,29.0,26.5,24.6,90,76,66,29.82,29.74,14,8,20,0.00
2012-3-4,36.6,32.1,28.4,25.7,24.5,23.3,84,73,61,29.92,29.85,7,5,12,0.00
2012-3-5,38.7,33.1,23.6,26.3,23.1,20.0,88,67,56,30.40,30.31,7,4,11,0.00
2012-3-6,67.3,54.1,37.8,43.5,36.4,27.8,68,52,37,30.13,29.92,24,14,31,0.00
2012-3-7,69.4,66.0,63.8,50.1,48.8,46.3,58,54,49,29.97,29.87,24,18,36,0.00
2012-3-8,46.3,41.5,36.1,36.2,33.1,27.5,93,73,50,30.21,30.00,10,8,13,0.33
2012-3-9,41.8,37.6,31.6,20.4,15.2,10.5,63,41,28,30.53,30.45,9,7,17,0.00
2012-3-10,60.3,49.8,30.2,31.4,27.0,21.2,69,43,28,30.49,30.24,14,10,20,0.00
2012-3-11,68.7,58.3,35.0,39.9,33.3,28.2,77,42,25,30.29,30.11,10,6,14,0.00
2012-3-12,70.5,63.4,56.9,58.1,56.3,54.6,92,79,58,29.89,29.73,16,10,24,0.13
2012-3-13,72.2,59.2,40.9,50.0,42.1,32.3,95,60,23,30.10,30.04,4,3,7,0.00
2012-3-14,81.6,72.7,53.8,60.9,58.5,50.9,91,63,47,30.03,29.88,14,9,18,0.00
2012-3-15,82.1,74.2,58.2,63.3,60.3,55.2,94,64,40,30.00,29.89,9,6,17,0.00
2012-3-16,82.0,72.1,54.4,58.3,55.6,50.5,96,60,34,30.05,29.95,11,6,16,0.00
2012-3-17,81.2,72.0,52.8,63.2,58.8,51.1,94,66,45,30.07,29.92,14,9,18,0.00
2012-3-18,81.7,72.3,58.4,62.4,60.4,56.4,94,68,48,30.06,29.91,11,7,15,0.04
2012-3-19,81.4,71.6,61.9,64.8,61.4,58.2,89,72,46,30.00,29.85,11,5,17,0.00
2012-3-20,84.7,78.5,61.2,57.7,53.9,49.8,78,45,33,29.99,29.89,17,12,23,0.00
2012-3-21,85.4,78.2,60.8,58.5,55.5,52.0,81,48,32,30.06,29.96,14,9,17,0.00
2012-3-22,81.4,74.8,60.2,60.7,57.7,53.0,77,56,45,30.04,29.95,15,9,17,0.00
2012-3-23,69.9,65.6,56.9,62.3,58.2,48.8,94,78,55,29.92,29.75,13,5,15,0.26
2012-3-24,67.3,59.5,51.1,57.2,54.1,49.4,94,83,65,29.85,29.81,11,4,14,0.01
2012-3-25,74.1,67.0,53.8,60.1,56.3,52.2,96,70,47,30.01,29.97,9,5,12,0.00
2012-3-26,54.0,45.7,40.0,36.2,33.7,29.2,80,64,40,30.34,30.26,17,13,19,0.00
2012-3-27,74.4,57.9,38.6,48.5,35.5,25.0,59,44,36,30.21,29.84,21,15,25,0.00
2012-3-28,73.5,65.1,53.3,51.2,43.5,32.7,82,50,23,29.91,29.87,10,7,19,0.00
2012-3-29,55.1,50.5,38.9,40.0,37.7,35.4,87,62,50,30.12,30.00,16,10,18,0.00
2012-3-30,67.3,60.1,49.7,54.8,50.9,44.1,82,72,60,29.74,29.67,22,8,23,0.00
2012-3-31,55.7,46.0,40.2,42.9,39.3,36.3,87,78,63,29.98,29.87,10,7,12,0.00
2012-4-1,77.3,68.3,55.8,65.4,60.1,53.5,93,76,64,29.70,29.60,15,7,17,0.28
2012-4-2,71.4,61.3,50.0,45.5,43.2,40.8,80,54,34,29.88,29.81,19,16,24,0.00
2012-4-3,85.9,72.3,51.2,60.3,54.3,44.2,77,55,34,29.85,29.73,14,5,15,0.00
2012-4-4,64.3,58.8,47.9,42.5,31.9,22.5,77,40,22,29.91,29.84,21,18,26,0.00
2012-4-5,55.7,51.7,43.4,36.7,33.3,28.6,72,50,39,30.00,29.96,19,16,25,0.00
2012-4-6,62.2,51.6,34.7,30.9,26.3,22.5,86,40,22,30.30,30.19,14,9,17,0.00
2012-4-7,66.3,57.4,38.6,32.9,30.7,27.8,75,38,26,30.31,30.19,11,8,16,0.00
2012-4-8,68.0,60.7,43.9,42.4,28.0,21.0,93,33,17,30.28,30.08,9,5,17,0.00
2012-4-9,65.7,61.2,44.2,38.2,24.9,18.8,74,27,18,30.03,29.92,9,7,14,0.00
2012-4-10,50.8,48.8,46.0,21.6,18.9,16.3,32,30,28,30.09,30.06,11,8,15,0.00
2012-4-11,55.2,47.3,33.6,28.0,25.4,23.8,68,43,31,30.29,30.24,14,7,17,0.00
2012-4-12,63.6,54.9,32.5,30.6,27.8,24.8,76,37,23,30.31,30.12,7,4,10,0.00
2012-4-13,64.0,58.9,43.1,36.5,30.3,24.8,63,35,24,30.18,30.05,17,11,22,0.00
2012-4-14,66.4,60.3,54.9,59.7,55.4,46.8,93,84,74,29.95,29.83,9,6,11,0.02
2012-4-15,77.5,72.2,63.7,64.2,61.9,58.4,83,70,61,29.73,29.60,19,14,23,0.08
2012-4-16,59.5,54.2,50.7,50.3,44.9,40.2,84,71,59,30.00,29.63,14,9,19,0.12
2012-4-17,62.7,53.7,44.2,42.0,38.6,34.5,87,59,36,30.37,30.28,4,2,7,0.00
2012-4-18,73.9,64.3,45.7,47.9,44.8,39.9,80,51,38,30.22,29.96,12,9,17,0.00
2012-4-19,79.0,71.3,56.0,51.5,46.9,38.4,75,45,25,29.96,29.78,12,8,17,0.00
2012-4-20,57.1,47.7,45.6,53.0,44.0,40.3,92,87,80,29.89,29.64,11,6,13,0.06
2012-4-21,54.9,49.1,39.6,37.9,34.0,28.8,85,58,39,30.05,29.97,11,9,15,0.00
2012-4-23,61.7,54.3,40.0,28.9,26.0,18.8,62,35,24,30.05,29.88,14,8,21,0.00
2012-4-24,61.9,56.1,45.6,37.3,26.9,18.5,71,34,22,29.82,29.69,4,2,6,0.00
2012-4-25,73.7,66.4,49.8,52.8,45.3,42.0,75,48,34,29.74,29.57,19,14,21,0.00
2012-4-26,63.7,58.3,52.2,49.3,45.4,39.7,86,63,49,29.99,29.73,18,12,22,0.00
2012-4-27,57.5,49.9,39.8,30.8,20.9,13.6,70,34,18,30.28,30.15,15,10,22,0.00
2012-4-28,49.5,45.4,42.4,44.3,41.5,39.3,91,86,76,30.08,30.02,18,15,23,0.31
2012-4-29,59.7,54.8,44.0,50.5,45.3,37.1,87,71,60,30.23,30.06,17,12,22,0.05
2012-4-30,62.0,59.5,53.7,60.0,57.7,51.7,95,94,91,29.97,29.87,4,2,8,0.27
2012-5-1,63.8,59.0,53.1,62.0,56.2,49.8,94,90,86,30.02,29.79,17,12,20,0.16
2012-5-2,78.4,74.2,67.1,68.3,65.0,62.2,88,74,62,29.89,29.76,11,7,14,0.00
2012-5-3,86.6,80.4,70.3,71.7,68.1,65.9,86,67,53,29.91,29.78,12,8,16,0.00
2012-5-4,77.0,70.8,64.1,67.3,63.9,60.8,89,79,68,29.91,29.85,12,3,13,0.24
2012-5-5,74.4,65.4,57.7,66.2,62.5,56.9,98,91,75,29.97,29.91,12,7,14,0.00
2012-5-6,78.4,71.5,63.1,67.2,63.9,58.4,88,77,67,29.95,29.77,24,12,26,0.14
2012-5-7,64.9,63.2,62.0,62.6,61.1,59.6,95,93,88,29.86,29.78,10,4,11,1.11
2012-5-8,70.3,65.8,54.6,58.0,52.1,46.3,91,63,46,29.89,29.84,5,3,10,0.01
2012-5-9,65.2,60.1,53.6,52.6,50.1,48.2,83,70,57,29.90,29.87,16,5,16,0.00
2012-5-10,66.5,60.8,50.0,51.4,46.7,37.7,87,62,35,30.01,29.98,8,4,13,0.00
2012-5-11,78.9,69.2,53.3,47.0,43.1,40.2,67,41,26,30.12,30.05,9,7,15,0.00
2012-5-12,64.7,61.9,56.0,55.9,52.2,47.8,79,71,64,30.20,30.17,15,9,19,0.00
2012-5-13,71.9,66.4,55.9,51.0,44.5,31.2,67,48,24,30.21,30.10,17,13,23,0.00
2012-5-14,78.3,71.9,54.8,43.1,37.8,31.5,62,30,20,30.11,29.98,8,4,13,0.00
2012-5-15,84.0,74.1,60.4,47.8,44.2,38.4,57,36,23,29.98,29.83,8,4,16,0.00
2012-5-16,66.0,62.2,54.8,38.6,33.6,28.1,54,35,24,30.07,30.01,19,16,26,0.00
2012-5-17,76.5,67.4,49.9,40.8,37.2,33.1,65,35,21,30.16,30.04,10,8,15,0.00
2012-5-18,86.3,76.9,61.9,43.0,37.7,29.1,45,26,13,30.07,29.92,11,8,17,0.00
2012-5-19,92.0,83.3,68.8,61.4,56.8,49.9,65,43,24,30.00,29.91,10,8,17,0.00
2012-5-20,92.9,84.6,65.0,64.8,58.6,52.3,88,44,26,30.00,29.87,11,7,18,0.11
2012-5-21,66.8,61.4,58.6,52.9,50.0,43.3,80,68,43,30.13,30.05,16,10,21,0.00
2012-5-22,73.5,66.2,53.2,47.2,42.7,37.6,79,44,29,30.08,29.92,11,7,18,0.00
2012-5-23,83.2,73.3,54.5,47.1,41.7,33.9,70,35,19,29.90,29.74,11,6,16,0.00
2012-5-24,89.5,82.5,68.6,57.3,54.0,47.8,63,39,30,29.75,29.57,19,13,31,0.00
2012-5-25,85.3,73.4,67.9,59.5,54.6,46.4,74,53,27,29.97,29.90,8,5,12,0.00
2012-5-26,94.2,82.5,68.8,65.2,58.1,48.3,51,44,36,30.10,29.90,14,10,20,0.00
2012-5-27,97.7,91.3,78.6,66.9,60.7,50.0,63,38,22,29.94,29.80,9,6,15,0.00
2012-5-28,94.6,89.5,78.4,64.8,59.8,51.4,63,38,27,29.79,29.65,13,9,20,0.00
2012-5-29,83.6,78.1,67.4,57.6,50.9,42.6,70,41,25,29.82,29.77,8,4,18,0.10
2012-5-30,71.3,68.2,60.5,49.1,43.8,39.6,65,42,32,29.89,29.85,8,5,15,0.00
2012-5-31,57.4,53.9,50.5,49.6,45.1,40.8,91,73,55,29.97,29.82,15,11,20,0.31
2012-6-1,64.9,58.3,51.8,49.2,45.7,38.4,90,65,39,29.81,29.77,10,7,18,0.05
2012-6-2,71.3,67.0,57.6,55.4,52.4,49.0,74,60,50,29.80,29.73,8,6,17,0.00
2012-6-3,81.1,75.5,62.1,58.6,51.4,44.6,84,45,33,29.86,29.76,6,3,20,0.00
2012-6-4,79.4,70.2,62.0,61.4,55.9,46.6,89,64,32,29.85,29.82,12,3,16,0.03
2012-6-5,74.2,70.1,59.1,55.6,51.3,42.8,81,53,36,29.98,29.94,13,9,19,0.00
2012-6-6,76.6,70.6,57.7,54.2,49.0,42.3,85,48,30,30.07,30.01,9,5,15,0.00
2012-6-7,82.0,73.8,57.2,55.2,44.0,34.9,85,38,21,30.12,30.03,4,2,9,0.00
2012-6-8,86.0,79.8,63.6,56.8,51.7,46.5,66,39,27,30.06,29.92,5,2,9,0.00
2012-6-9,89.0,83.3,68.4,56.3,52.4,48.1,61,36,25,29.94,29.82,7,5,15,0.00
2012-6-10,89.2,84.8,74.0,60.8,58.7,56.6,63,42,35,29.92,29.84,13,8,20,0.00
2012-6-11,86.2,81.1,71.4,70.6,68.9,65.3,82,67,56,29.86,29.75,9,6,13,0.00
2012-6-12,77.9,73.1,65.9,51.6,46.8,42.6,60,40,33,30.00,29.96,7,5,16,0.00
2012-6-13,75.8,69.6,59.1,50.5,41.8,35.6,72,38,26,30.17,30.09,10,6,14,0.00
2012-6-14,85.3,77.5,61.4,55.2,52.0,47.3,60,42,31,30.10,30.00,10,8,15,0.00
2012-6-15,90.8,83.8,68.1,58.6,55.1,51.7,61,38,28,30.04,29.98,8,6,14,0.00
2012-6-16,92.3,86.5,72.7,70.3,66.2,60.7,66,51,45,30.00,29.82,8,6,20,0.00
2012-6-17,83.9,83.1,81.9,64.5,62.6,59.4,53,50,47,29.82,29.79,5,3,8,0.16
2012-6-18,89.8,84.5,74.8,73.4,70.7,66.0,84,64,47,29.74,29.67,14,9,21,0.00
2012-6-19,91.0,85.6,75.5,73.0,70.7,67.2,76,62,50,29.92,29.87,9,7,17,0.00
2012-6-20,90.1,85.6,75.0,71.2,68.0,64.6,72,56,45,29.98,29.89,9,7,17,0.00
2012-6-21,80.7,76.9,72.4,69.3,66.6,60.8,87,71,54,29.92,29.86,6,2,11,0.05
2012-6-22,81.5,75.5,64.4,62.9,58.0,53.3,87,56,39,29.99,29.96,5,3,9,0.01
2012-6-23,84.9,79.7,66.8,65.0,59.6,50.4,79,52,33,30.00,29.96,3,1,6,0.00
2012-6-24,87.8,81.9,73.4,67.4,64.4,60.9,76,56,46,29.96,29.87,4,2,8,0.00
2012-6-25,75.8,72.8,68.3,54.3,50.1,45.7,57,45,36,30.03,29.98,13,10,18,0.00
2012-6-26,80.4,73.5,61.2,56.4,53.8,49.9,83,51,40,30.07,29.94,5,3,10,0.00
2012-6-27,89.6,81.9,67.4,58.8,56.0,53.6,63,42,33,29.97,29.80,8,6,15,0.00
2012-6-28,97.3,90.5,74.6,78.4,72.5,61.2,64,56,51,29.80,29.73,6,4,13,0.00
2012-6-29,89.6,82.0,74.1,74.8,69.6,64.9,85,67,53,29.90,29.73,10,4,15,0.00
2012-6-30,84.7,81.5,73.1,73.9,71.5,69.0,89,72,64,29.83,29.75,4,2,9,0.12
2012-7-1,85.8,79.7,72.5,75.1,72.5,67.8,90,79,67,29.95,29.88,7,3,11,0.02
2012-7-2,93.6,87.5,73.3,79.8,75.7,71.8,95,69,55,29.95,29.85,4,2,6,0.00
2012-7-3,96.0,87.4,71.7,75.5,71.6,65.7,82,61,46,29.90,29.79,5,3,9,0.00
2012-7-4,98.3,93.0,80.2,78.5,75.7,72.5,80,58,45,29.85,29.80,4,2,9,0.00
2012-7-5,98.5,92.4,78.1,76.0,73.1,69.9,76,54,42,29.91,29.83,4,2,7,0.00
2012-7-6,100.1,93.6,79.6,77.9,74.3,68.5,81,55,39,29.92,29.86,4,2,8,0.00
2012-7-7,101.3,95.2,79.4,78.3,74.4,69.5,79,53,37,29.92,29.83,8,2,11,0.00
2012-7-8,84.7,78.4,72.0,69.9,63.8,52.8,90,65,34,30.02,29.94,12,7,19,0.02
2012-7-9,91.1,83.5,69.6,64.5,62.1,57.1,81,50,34,30.02,29.94,5,2,7,0.00
2012-7-10,84.1,78.7,67.4,66.7,61.9,55.2,91,58,39,30.06,30.02,8,5,14,0.00
2012-7-11,88.0,81.1,66.3,64.2,60.5,55.6,88,51,36,30.10,30.01,5,3,10,0.00
2012-7-12,89.8,82.1,69.0,65.9,62.3,58.4,69,52,39,30.06,30.00,7,5,11,0.00
2012-7-13,91.5,86.9,76.4,70.6,67.9,63.3,75,54,40,30.03,29.93,6,3,12,0.00
2012-7-14,88.3,80.3,72.1,74.5,68.7,65.0,88,69,50,30.05,29.92,11,2,15,0.07
2012-7-15,94.1,85.8,71.7,72.7,70.2,66.2,91,62,41,30.04,29.94,5,2,10,0.01
2012-7-16,95.3,90.4,76.4,73.8,71.0,67.5,85,54,43,29.96,29.82,6,4,11,0.00
2012-7-17,99.0,92.8,78.9,75.2,70.9,66.7,80,51,36,29.83,29.75,5,3,11,0.00
2012-7-18,101.7,93.5,78.1,74.6,72.4,66.2,87,52,33,29.86,29.75,5,3,12,0.00
2012-7-19,88.7,82.2,71.5,76.0,73.7,69.7,94,76,64,29.84,29.80,8,4,12,0.61
2012-7-20,82.2,77.8,71.5,68.3,64.7,58.3,88,66,46,30.02,29.95,10,8,14,0.00
2012-7-21,89.5,80.1,66.5,68.2,65.5,62.5,92,63,44,30.09,30.00,3,2,7,0.00
2012-7-22,92.5,85.6,75.7,70.9,67.6,64.0,75,55,45,30.08,29.97,5,3,8,0.00
2012-7-23,96.8,89.1,79.8,74.5,69.8,65.2,65,54,39,29.93,29.86,7,4,13,0.00
2012-7-24,86.9,80.1,73.9,72.8,69.0,66.7,81,69,59,29.94,29.87,17,4,22,0.00
2012-7-25,101.0,90.5,73.5,76.2,72.0,67.0,88,58,34,29.81,29.63,10,6,18,0.11
2012-7-26,87.1,79.1,72.4,74.6,71.6,61.9,93,78,49,29.70,29.62,7,4,12,0.37
2012-7-27,86.8,81.6,70.1,69.4,65.8,60.6,89,60,43,29.82,29.78,5,3,12,0.00
2012-7-28,84.1,78.5,68.8,66.9,63.5,59.0,89,62,44,30.08,30.04,8,5,11,0.00
2012-7-29,86.3,81.1,66.5,64.6,61.9,58.5,86,53,44,30.08,29.92,5,3,11,0.00
2012-7-30,92.0,84.8,69.3,68.8,65.9,61.2,76,54,42,29.93,29.83,6,3,11,0.00
2012-7-31,89.6,82.5,69.1,73.5,69.7,65.2,90,66,49,29.89,29.82,8,5,12,0.08
2012-8-1,90.8,82.1,63.6,68.5,65.4,62.4,96,60,40,29.94,29.85,4,2,7,0.00
2012-8-2,91.2,85.3,69.7,65.7,63.3,60.5,77,49,41,29.86,29.75,4,3,11,0.00
2012-8-3,93.7,85.9,68.5,70.7,67.5,64.1,88,56,39,29.85,29.80,6,3,11,0.00
2012-8-4,96.1,84.4,71.9,76.8,73.7,68.8,92,72,50,29.85,29.67,10,5,25,0.20
2012-8-5,84.8,81.1,71.5,67.9,62.3,55.6,88,54,41,30.03,29.98,8,4,14,0.01
2012-8-6,87.5,78.8,61.2,63.1,57.9,54.0,94,52,33,30.14,29.98,6,3,9,0.00
2012-8-7,96.5,85.1,62.2,61.3,58.9,55.8,86,44,28,29.96,29.85,5,3,11,0.00
2012-8-8,88.1,80.6,70.1,72.0,69.1,65.1,89,69,48,29.94,29.87,5,2,8,0.09
2012-8-9,81.9,73.5,64.8,69.7,66.2,62.5,97,79,56,29.86,29.74,9,3,13,0.04
2012-8-10,78.1,71.6,63.6,62.1,58.1,51.5,91,64,40,29.87,29.83,15,8,19,0.01
2012-8-11,80.4,73.4,57.4,55.3,52.7,50.6,86,50,36,29.98,29.91,7,4,13,0.00
2012-8-12,79.7,72.1,56.3,61.1,55.8,49.3,94,59,39,30.02,29.94,4,1,7,0.00
2012-8-13,65.1,64.1,62.6,63.3,62.2,61.1,95,93,91,29.93,29.89,5,3,8,0.45
2012-8-14,82.4,73.1,61.3,65.6,62.3,58.5,97,72,47,29.95,29.85,4,2,7,0.07
2012-8-15,87.4,79.3,65.5,64.4,61.2,56.1,85,56,35,29.93,29.85,5,3,11,0.00
2012-8-16,71.3,68.5,67.3,66.0,64.4,61.1,93,87,73,29.93,29.74,8,4,12,0.35
2012-8-17,74.4,68.5,55.5,58.1,54.8,49.8,94,64,42,29.99,29.96,6,3,9,0.00
2012-8-18,77.0,66.2,55.4,56.1,52.7,48.5,93,64,39,30.01,29.92,5,3,11,0.00
2012-8-19,78.3,72.8,59.8,57.4,54.2,50.1,89,53,39,29.94,29.87,9,2,16,0.00
2012-8-20,78.9,71.3,56.0,63.6,55.7,-99.9,93,62,42,29.96,29.89,8,2,10,0.06
2012-8-21,80.5,72.4,52.5,60.6,53.2,46.7,96,55,31,30.07,30.01,4,2,7,0.00
2012-8-22,85.5,77.6,57.5,59.2,55.0,51.3,89,48,33,30.10,29.98,6,3,10,0.00
2012-8-23,91.6,83.3,64.5,61.4,57.2,52.2,75,43,28,30.07,29.98,6,4,11,0.00
2012-8-24,93.0,85.1,62.6,63.5,59.5,55.8,84,45,29,30.02,29.92,7,4,13,0.00
2012-8-25,92.8,86.3,64.9,64.7,60.1,54.5,87,44,30,30.02,29.94,9,4,16,0.00
2012-8-26,77.3,72.9,70.3,72.8,69.3,65.0,95,89,75,30.01,29.92,6,3,11,0.30
2012-8-27,86.7,78.2,67.9,71.7,67.1,56.6,97,72,36,30.04,29.97,6,4,11,0.02
2012-8-28,86.5,80.4,61.1,66.0,60.0,54.2,95,53,34,30.10,29.98,5,2,8,0.00
2012-8-29,87.4,79.7,64.1,64.7,61.8,58.2,90,56,44,30.07,29.96,4,2,7,0.00
2012-8-30,91.5,83.1,65.1,63.8,59.8,54.9,82,48,31,30.02,29.91,7,5,12,0.00
2012-8-31,89.7,83.9,69.0,72.5,70.4,64.3,85,65,52,30.04,29.97,7,4,13,0.00
2012-9-1,82.1,76.2,72.1,75.7,72.9,70.9,97,90,78,29.98,29.85,9,5,14,0.48
2012-9-2,85.8,78.7,73.7,75.1,73.2,70.6,94,84,67,29.83,29.77,10,5,21,0.14
2012-9-3,89.7,82.8,70.9,74.8,72.9,69.7,96,73,57,29.87,29.80,6,4,12,0.00
2012-9-4,91.5,82.7,71.9,74.5,69.6,60.3,96,69,36,29.85,29.78,4,2,7,0.00
2012-9-5,85.6,75.9,66.9,68.2,64.7,61.8,86,69,53,29.91,29.71,8,5,14,0.03
2012-9-6,85.0,79.1,67.9,69.0,62.4,54.8,95,60,37,29.90,29.85,6,3,10,0.00
2012-9-7,77.3,70.0,63.3,68.1,64.7,60.9,95,84,64,29.95,29.68,10,4,14,0.54
2012-9-8,73.0,65.5,55.0,53.7,51.2,47.4,88,62,41,29.91,29.83,7,5,15,0.00
2012-9-9,72.4,65.6,56.6,57.4,54.8,52.5,92,69,51,30.03,29.97,8,5,13,0.00
2012-9-10,77.6,68.4,50.0,57.0,50.8,46.0,96,57,37,30.22,30.09,5,2,10,0.00
2012-9-11,84.0,76.2,55.2,58.7,55.6,50.4,84,51,35,30.16,30.03,9,6,17,0.00
2012-9-12,86.5,78.4,59.2,62.2,58.4,52.6,87,53,33,30.15,30.04,8,6,14,0.00
2012-9-13,80.7,71.0,61.1,63.5,59.2,51.3,89,68,48,30.22,30.14,13,5,18,0.00
2012-9-14,74.2,65.0,52.9,53.8,49.7,38.6,96,62,29,30.34,30.26,5,3,9,0.15
2012-9-15,78.5,70.7,51.1,53.1,48.4,38.2,87,49,25,30.31,30.15,6,2,8,0.00
2012-9-16,78.0,71.8,55.5,55.5,50.3,46.3,88,49,33,30.12,29.98,7,3,12,0.01
2012-9-17,78.5,69.9,55.5,64.0,60.1,54.1,96,73,48,29.92,29.72,5,2,9,0.00
2012-9-18,62.4,57.6,49.4,47.2,41.1,32.5,88,57,34,29.93,29.83,11,6,17,0.00
2012-9-19,73.2,64.4,41.8,45.2,41.0,38.1,88,45,31,30.10,29.88,12,8,19,0.00
2012-9-20,73.0,66.8,53.6,52.1,43.4,35.4,87,46,26,29.90,29.85,6,3,17,0.00
2012-9-21,67.3,60.5,46.7,48.7,45.1,40.6,82,58,39,29.92,29.74,11,5,15,0.00
2012-9-22,59.1,52.7,46.7,48.4,39.0,34.1,96,62,45,30.09,29.88,8,6,17,0.01
2012-9-23,63.0,55.3,39.9,43.9,37.8,31.3,92,55,31,30.27,30.20,7,3,13,0.00
2012-9-24,72.4,61.0,32.9,38.0,33.5,29.2,86,40,24,30.23,29.95,8,5,14,0.00
2012-9-25,75.3,66.4,56.6,63.3,57.0,47.4,82,72,63,29.89,29.80,7,3,13,0.00
2012-9-26,75.2,67.7,61.3,64.5,62.2,55.3,97,84,56,29.99,29.91,11,3,16,0.00
2012-9-27,69.0,62.7,50.6,49.4,46.3,43.3,81,57,40,30.18,30.09,7,4,11,0.00
2012-9-28,70.4,61.8,44.0,55.1,51.1,42.3,94,69,52,30.15,30.07,12,7,18,0.00
2012-9-29,78.4,67.8,42.7,52.1,45.5,41.1,96,50,27,30.13,29.91,5,3,10,0.00
2012-9-30,69.3,64.5,52.0,53.7,48.4,41.8,92,58,38,29.95,29.87,13,10,17,0.00
2012-10-1,59.4,51.0,44.3,47.8,46.0,42.6,96,84,62,29.90,29.89,6,2,7,0.00
2012-10-2,71.8,65.5,53.5,52.5,48.3,43.3,88,56,37,29.83,29.77,14,9,21,0.00
2012-10-3,63.1,60.6,58.7,59.9,58.4,57.2,96,93,83,29.94,29.90,7,3,10,0.05
2012-10-4,79.5,69.8,55.1,61.8,58.0,50.2,93,68,48,30.06,29.97,9,6,15,0.16
2012-10-5,46.6,45.3,43.1,40.3,38.4,36.5,87,77,69,30.18,30.09,4,2,9,0.03
2012-10-6,50.6,43.9,31.4,34.1,31.8,28.0,88,64,48,30.18,30.14,6,3,13,0.00
2012-10-7,51.6,47.0,37.9,34.6,28.8,23.6,83,51,35,30.21,30.14,6,3,11,0.00
2012-10-8,59.7,51.8,33.3,34.8,32.6,27.7,80,50,35,30.19,30.03,9,7,17,0.00
2012-10-9,66.7,58.5,41.3,43.3,41.3,36.6,84,55,38,30.00,29.84,13,9,20,0.00
2012-10-10,53.7,46.9,35.5,37.8,34.1,29.9,91,63,43,30.15,30.06,6,4,14,0.04
2012-10-11,65.4,56.3,38.4,37.9,35.8,32.0,78,48,34,30.20,30.05,11,8,17,0.00
2012-10-12,56.9,50.9,40.7,35.7,32.0,27.8,71,50,34,30.42,30.33,12,8,17,0.00
2012-10-13,66.2,58.7,51.2,63.1,55.3,43.2,95,89,74,30.11,29.83,11,7,17,0.37
2012-10-14,71.0,66.7,57.0,63.6,61.2,53.5,90,83,71,29.59,29.43,17,13,27,0.54
2012-10-15,60.4,52.6,42.0,44.0,42.2,39.8,92,69,50,29.94,29.87,6,3,13,0.00
2012-10-16,70.6,60.6,42.4,52.6,47.7,39.4,89,64,50,29.90,29.59,21,14,30,0.00
2012-10-17,67.3,61.2,55.2,58.8,55.7,49.4,95,83,67,29.55,29.25,17,9,24,0.97
2012-10-18,53.7,50.1,43.7,44.4,41.6,37.4,87,73,56,29.52,29.42,10,7,18,0.03
2012-10-19,50.9,48.4,45.5,47.5,45.6,43.9,94,90,82,29.56,29.44,4,2,7,0.09
2012-10-20,42.4,42.1,41.9,41.3,41.0,40.8,96,96,96,29.82,29.79,3,2,6,0.00
2012-10-21,70.4,60.0,41.3,53.4,50.0,40.0,95,71,53,30.03,29.93,15,11,19,0.00
2012-10-22,65.5,62.5,59.3,62.2,58.7,55.4,93,88,78,29.98,29.89,17,8,21,0.32
2012-10-23,69.8,65.5,60.2,65.0,62.1,57.4,94,89,83,29.93,29.86,11,6,14,0.03
2012-10-24,77.8,70.8,60.3,67.6,63.4,57.0,89,78,69,29.94,29.83,9,7,17,0.00
2012-10-25,77.5,71.5,58.2,65.5,62.8,54.3,89,75,65,29.81,29.67,13,10,22,0.17
2012-10-26,49.9,44.4,38.9,34.0,32.0,29.3,78,62,49,30.32,30.24,11,7,16,0.00
2012-10-27,49.0,44.3,35.2,35.8,32.5,28.8,79,64,49,30.31,30.21,9,7,13,0.00
2012-10-28,49.2,45.1,39.0,39.4,34.4,30.7,83,67,49,30.28,30.21,17,10,23,0.00
2012-10-29,52.2,46.7,35.5,38.0,34.0,28.0,86,63,41,30.28,30.15,17,11,22,0.00
2012-10-30,47.9,43.3,37.9,30.7,29.6,28.6,72,59,50,29.88,29.77,14,10,21,0.00
2012-10-31,49.9,41.3,31.6,34.2,30.2,25.9,81,65,53,29.86,29.81,9,6,16,0.00
2012-11-1,53.3,45.8,30.8,31.8,26.7,20.8,81,50,29,29.93,29.83,5,3,10,0.00
2012-11-2,49.3,43.3,33.9,34.1,29.3,23.0,84,60,39,30.09,30.03,8,5,11,0.00
2012-11-3,45.2,42.1,37.5,34.8,33.4,31.5,86,72,63,30.21,30.16,11,8,14,0.00
2012-11-4,48.9,45.4,36.2,35.0,31.6,29.3,90,60,47,30.25,30.17,10,5,14,0.00
2012-11-5,46.6,40.4,26.8,35.3,31.6,25.3,96,72,54,30.22,30.13,10,6,14,0.00
2012-11-6,41.2,38.2,30.9,37.9,34.2,28.3,91,85,78,30.06,29.92,7,5,9,0.06
2012-11-7,46.1,43.4,40.1,41.2,39.9,38.7,95,87,80,30.11,30.01,6,3,9,0.05
2012-11-8,48.1,44.5,40.9,39.7,38.1,36.3,94,79,70,30.23,30.13,7,3,9,0.00
2012-11-9,58.4,52.2,38.3,49.2,45.0,35.8,91,77,69,30.11,29.97,11,7,16,0.00
2012-11-10,71.5,65.2,53.5,56.8,53.2,48.9,85,66,50,29.98,29.84,17,10,26,0.00
2012-11-11,69.2,65.2,57.7,54.9,52.8,48.7,78,64,59,29.91,29.75,21,16,34,0.00
2012-11-12,37.1,33.3,29.3,26.7,25.1,23.4,83,72,61,30.24,30.14,10,7,19,0.11
2012-11-13,40.7,35.3,26.0,28.2,25.4,22.9,88,68,53,30.54,30.47,5,2,8,0.00
2012-11-14,43.9,39.1,30.1,31.2,29.0,25.6,84,68,54,30.56,30.42,13,8,16,0.00
2012-11-15,47.4,40.2,26.4,34.0,31.2,24.7,93,72,49,30.43,30.34,5,2,6,0.00
2012-11-16,53.7,47.2,30.9,35.7,32.8,27.2,87,59,45,30.48,30.44,6,3,8,0.00
2012-11-17,53.9,46.1,29.5,37.3,34.2,26.1,88,65,47,30.56,30.47,8,5,10,0.00
2012-11-18,58.1,50.6,34.9,39.0,36.2,31.1,86,59,43,30.45,30.33,10,7,12,0.00
2012-11-19,58.4,51.5,36.2,42.3,39.3,32.4,87,64,49,30.29,30.15,8,5,13,0.00
2012-11-20,57.9,52.8,47.2,48.5,46.4,43.8,89,79,68,30.10,30.06,3,1,7,0.00
2012-11-21,61.1,48.4,33.5,53.5,43.7,32.2,97,85,64,30.26,30.14,6,3,10,0.01
2012-11-22,62.9,56.5,44.7,50.3,48.2,42.5,92,74,61,30.04,29.83,11,9,17,0.01
2012-11-23,34.7,32.1,29.7,27.8,23.4,19.8,76,70,64,30.19,30.01,13,9,21,0.00
2012-11-24,33.2,29.6,26.5,22.2,20.0,18.4,72,67,61,30.30,30.17,5,3,7,0.00
2012-11-25,45.7,40.8,29.9,29.4,28.1,25.1,83,61,50,29.94,29.89,5,3,9,0.00
2012-11-26,35.6,33.6,29.6,22.0,20.1,18.4,73,58,53,30.28,30.23,10,6,13,0.00
2012-11-27,34.1,28.7,17.2,16.8,14.5,12.6,82,57,42,30.47,30.31,4,3,8,0.00
2012-11-28,46.2,37.4,24.4,27.7,24.5,18.8,80,61,41,30.42,30.36,6,3,11,0.00
2012-11-29,52.6,45.2,30.3,37.0,33.8,25.2,81,65,54,30.27,30.10,9,6,14,0.00
2012-11-30,57.6,49.5,32.5,38.8,36.5,29.5,89,62,48,30.10,30.04,5,2,8,0.00
2012-12-1,61.9,52.5,36.6,53.2,47.6,35.0,94,84,73,30.11,29.95,10,7,14,0.00
2012-12-2,64.5,60.9,56.1,57.2,55.6,52.9,91,83,73,29.97,29.93,5,2,12,0.01
2012-12-3,71.4,65.8,59.7,62.6,59.4,56.6,97,80,67,29.94,29.76,18,10,26,0.01
2012-12-4,57.2,52.7,47.6,45.3,41.8,37.1,90,68,49,30.13,30.04,8,3,11,0.12
2012-12-5,42.9,37.9,29.4,33.1,29.6,22.1,79,72,65,30.43,30.32,8,5,10,0.00
2012-12-6,46.8,40.5,32.3,41.7,35.9,29.4,90,84,79,30.15,29.96,12,7,15,0.00
2012-12-7,46.8,44.5,42.8,44.3,42.8,41.2,96,94,90,29.95,29.87,10,5,12,0.09
2012-12-8,43.9,40.9,37.9,39.8,37.4,35.5,94,87,80,30.05,29.93,11,6,14,0.06
2012-12-9,45.9,41.9,37.6,44.8,40.5,36.0,96,95,94,29.92,29.72,15,9,18,0.11
2012-12-10,31.5,30.2,28.9,29.7,28.0,26.3,93,91,90,29.88,29.80,6,5,11,0.00
2012-12-11,35.2,30.8,20.9,27.8,24.7,18.7,91,78,68,30.09,30.05,11,8,16,0.00
2012-12-12,45.1,38.6,24.5,33.8,30.2,21.5,88,72,59,30.34,30.27,8,5,13,0.00
2012-12-13,46.7,41.5,30.5,34.8,32.0,26.1,84,69,59,30.30,30.14,13,8,21,0.00
2012-12-14,48.1,41.6,26.7,39.0,34.3,23.9,90,76,64,30.23,30.10,9,5,11,0.00
2012-12-15,48.2,45.7,42.3,46.8,43.3,38.1,95,91,85,29.87,29.59,21,15,29,0.14
2012-12-16,46.8,43.3,41.1,44.9,40.3,37.6,93,89,86,29.68,29.62,6,4,11,0.00
2012-12-17,39.1,38.2,37.1,35.4,34.4,33.5,91,86,84,29.74,29.65,4,1,6,0.00
2012-12-18,42.2,38.2,33.1,39.5,35.0,29.9,90,88,86,29.79,29.60,21,11,26,0.00
2012-12-19,39.5,37.5,34.0,37.1,34.3,31.6,91,88,85,30.07,29.96,11,5,14,0.01
2012-12-20,51.2,45.2,36.8,49.4,42.9,34.7,94,92,85,29.31,29.06,17,12,22,0.71
2012-12-21,28.4,26.2,23.9,23.3,21.2,18.5,85,81,77,30.17,29.89,13,9,18,0.00
2012-12-22,32.6,24.1,14.9,27.1,19.1,11.7,88,81,76,30.29,30.11,6,3,8,0.00
2012-12-23,37.3,31.8,20.0,32.6,28.2,18.3,94,87,81,30.03,29.98,8,5,11,0.00
2012-12-24,32.9,31.0,26.9,30.0,27.8,24.1,90,88,84,29.94,29.85,6,4,8,0.00
2012-12-25,30.1,29.1,28.2,25.0,23.9,23.2,84,80,77,30.32,30.23,8,5,10,0.00
2012-12-26,33.5,33.0,32.0,26.9,26.2,25.1,79,76,73,30.03,29.95,24,18,29,0.00
2012-12-27,32.9,30.8,28.1,27.7,26.0,23.9,86,82,79,30.20,30.14,6,2,8,0.00
2012-12-28,32.6,31.4,29.7,29.4,28.6,27.3,93,90,87,30.10,29.95,11,8,14,0.00
2012-12-29,29.4,26.9,25.8,27.6,24.0,22.1,93,89,84,30.11,29.93,9,6,11,0.00
2012-12-30,37.3,30.0,17.2,28.3,23.8,14.5,89,78,66,30.40,30.26,6,4,9,0.00
2012-12-31,36.9,33.2,29.3,30.5,28.4,26.5,93,83,70,30.10,30.05,8,5,13,0.00
2013-1-1,27.3,22.7,16.7,15.5,12.8,10.5,79,66,50,30.27,30.17,11,4,13,0.00